This is the latest recevied weather packets stored in our database for station/object N8AMF. If no packets are shown the sender has not sent any weather packets the latest 10 day(s).
| Time | Temp. | Humidity | Pressure | Rain* | Wind** | Luminosity | Snow |
|---|---|---|---|---|---|---|---|
| 1778017879 | 10.56° C | 97% | 1007.6 hPa | 4.32 mm | - | 13 W/m² | - |
| 1778017577 | 10.56° C | 97% | 1007.2 hPa | 2.29 mm | - | 19 W/m² | - |
| 1778017274 | 10.56° C | 97% | 1006.8 hPa | 3.05 mm | - | 54 W/m² | - |
| 1778016971 | 10.56° C | 97% | 1007 hPa | 5.33 mm | - | 52 W/m² | - |
| 1778016668 | 10.56° C | 96% | 1007 hPa | 3.56 mm | - | 45 W/m² | - |
| 1778016364 | 11.11° C | 97% | 1007.1 hPa | 1.78 mm | - | 21 W/m² | - |
| 1778016062 | 11.67° C | 96% | 1006.7 hPa | 1.78 mm | - | 22 W/m² | - |
| 1778015758 | 11.67° C | 97% | 1006.9 hPa | 3.56 mm | - | 32 W/m² | - |
| 1778015455 | 11.67° C | 97% | 1006.7 hPa | 3.56 mm | - | 53 W/m² | - |
| 1778015152 | 11.67° C | 96% | 1006.8 hPa | 4.83 mm | - | 33 W/m² | - |
| 1778014849 | 11.67° C | 96% | 1006.9 hPa | 4.32 mm | - | 51 W/m² | - |
| 1778014547 | 11.67° C | 96% | 1006.9 hPa | 4.32 mm | - | 39 W/m² | - |
| 1778014244 | 11.67° C | 96% | 1006.8 hPa | 4.32 mm | - | 45 W/m² | - |
| 1778013941 | 11.67° C | 96% | 1007.1 hPa | 3.05 mm | - | 52 W/m² | - |
| 1778013638 | 11.67° C | 96% | 1007.1 hPa | 6.1 mm | - | 43 W/m² | - |
| 1778013335 | 12.22° C | 96% | 1007.2 hPa | 6.1 mm | - | 27 W/m² | - |
| 1778013032 | 13.33° C | 95% | 1007 hPa | 4.83 mm | - | 20 W/m² | - |
| 1778012728 | 13.89° C | 96% | 1006.8 hPa | 5.33 mm | - | 34 W/m² | - |
| 1778012424 | 13.89° C | 96% | 1006.6 hPa | 2.29 mm | - | 77 W/m² | - |
| 1778012121 | 13.89° C | 96% | 1006.8 hPa | 2.29 mm | - | 35 W/m² | - |
| 1778011819 | 13.89° C | 95% | 1006.8 hPa | 2.29 mm | - | 64 W/m² | - |
| 1778011517 | 13.89° C | 95% | 1006.9 hPa | 1.27 mm | - | 84 W/m² | - |
| 1778011213 | 13.89° C | 95% | 1006.9 hPa | 2.29 mm | - | 87 W/m² | - |
| 1778010909 | 14.44° C | 95% | 1006.9 hPa | 2.29 mm | - | 118 W/m² | - |
| 1778010607 | 14.44° C | 95% | 1006.9 hPa | 3.56 mm | - | 112 W/m² | - |
* Rain latest hour (hover to see other rain measurements)
** Current wind speed in m/s (hover to see current wind gust speed)